Flag for Kazakhstan Weather past 2 weeks in Almaty, Kazakhstan

Now
54 °F

Passing clouds.


Feels Like: 52 °F
Forecast: 49 / 66 °F
Wind: 6 mph from South

Location: Almaty Airport

Current Time: Apr 18, 2015 at 11:36:51 PM

Latest Report: Apr 18, 2015 at 11:00 PM


Visibility: N/A

Pressure: 30.09 "Hg

Humidity: 67%

Dew point: 43 °F

Location of AlmatyLocation

Historic Weather in Almaty — Graph

°F

Almaty temperature yesterday

Maximum temperature yesterday: 63 °F (at 1:00 PM)
Minimum temperature yesterday: 43 °F (at 12:00 AM)
Average temperature yesterday: 54 °F

Past Weeks' High & Low Weather Summary

 TemperatureHumidityPressure
High82 °F (Apr 11, 3:30 PM)94% (Apr 8, 8:00 AM)30.33 "Hg (Apr 8, 8:00 AM)
Low34 °F (Apr 3, 11:30 PM)9% (Apr 11, 4:00 PM)29.77 "Hg (Apr 14, 3:30 PM)
Average56 °F56%30.08 "Hg
* Reported Apr 3 10:00 PM — Apr 18 10:30 PM, Almaty, Weather by CustomWeather, © 2015

Note: Actual official high and low records may vary slightly from our data, if they occured in-between our weather recording intervals... More about our weather records

Advertising

Almaty weather history for previous 24 hours

 ConditionsComfort  
Time TempWeatherWind HumidityBarometerVisibility
10:30 PM
Sat, Apr 18
54 °FPartly cloudy.6 mph67%30.09 "HgN/A
10:00 PM54 °FPartly cloudy.8 mph67%30.09 "HgN/A
9:30 PM54 °FPartly cloudy.6 mph58%30.09 "Hg2 mi
9:00 PM55 °FPartly cloudy.No wind55%30.07 "Hg2 mi
8:30 PM55 °FPassing clouds.1 mph55%30.07 "HgN/A
8:00 PM57 °FPassing clouds.1 mph51%30.07 "HgN/A
7:30 PM57 °FBroken clouds.1 mph48%30.04 "HgN/A
7:00 PM57 °FBroken clouds.3 mph55%30.04 "HgN/A
6:30 PM59 °FBroken clouds.6 mph42%30.04 "HgN/A
6:00 PM59 °FBroken clouds.10 mph42%30.04 "HgN/A
5:30 PM59 °FBroken clouds.13 mph45%30.04 "HgN/A
5:00 PM59 °FMostly cloudy.15 mph45%30.01 "HgN/A
4:30 PM61 °FMostly cloudy.3 mph42%30.01 "HgN/A
4:00 PM63 °FMostly cloudy.8 mph42%30.01 "HgN/A
3:30 PM63 °FMostly cloudy.3 mph39%29.98 "HgN/A
3:00 PM63 °FBroken clouds.3 mph39%29.98 "HgN/A
2:30 PM63 °FBroken clouds.6 mph42%30.01 "HgN/A
2:00 PM63 °FBroken clouds.6 mph42%29.98 "HgN/A
1:30 PM63 °FBroken clouds.8 mph49%29.98 "HgN/A
1:00 PM63 °FBroken clouds.8 mph45%29.98 "HgN/A
12:30 PM63 °FPartly sunny.8 mph49%29.98 "HgN/A
12:00 PM61 °FPartly sunny.8 mph45%29.98 "HgN/A
11:30 AM61 °FBroken clouds.3 mph48%29.98 "HgN/A
11:00 AM59 °FBroken clouds.3 mph48%30.01 "HgN/A
10:30 AM57 °FBroken clouds.1 mph55%30.01 "HgN/A
10:00 AM57 °FBroken clouds.6 mph55%30.01 "HgN/A
9:30 AM55 °FBroken clouds.8 mph63%29.98 "HgN/A
9:00 AM54 °FPartly sunny.6 mph72%30.01 "HgN/A
8:30 AM50 °FPartly sunny.13 mph76%30.01 "HgN/A
8:00 AM50 °FFog.3 mph71%29.98 "Hg3 mi
7:30 AM48 °FPartly sunny.6 mph82%29.98 "HgN/A
7:00 AM46 °FPartly sunny.6 mph82%29.98 "HgN/A
6:30 AM45 °FPartly sunny.10 mph87%29.95 "HgN/A
6:00 AM46 °FMostly cloudy.3 mph76%29.92 "HgN/A
5:30 AM46 °FMostly cloudy.3 mph82%29.95 "HgN/A
5:00 AM46 °FMostly cloudy.1 mph82%29.98 "HgN/A
4:30 AM46 °FMostly cloudy.3 mph82%29.95 "HgN/A
4:00 AM46 °FMostly cloudy.3 mph82%29.95 "HgN/A
3:30 AM46 °FPartly cloudy.3 mph76%29.95 "HgN/A
3:00 AM45 °FPartly cloudy.3 mph81%29.95 "HgN/A
2:30 AM45 °FPassing clouds.3 mph81%29.95 "HgN/A
2:00 AM45 °FPassing clouds.3 mph81%29.95 "HgN/A
1:30 AM46 °FPassing clouds.1 mph71%29.98 "HgN/A
1:00 AM48 °FPassing clouds.1 mph66%29.98 "HgN/A
12:30 AM48 °FPassing clouds.6 mph76%29.98 "HgN/A
12:00 AM48 °FPassing clouds.1 mph71%30.01 "HgN/A
11:30 PM
Fri, Apr 17
48 °FPassing clouds.6 mph76%30.01 "HgN/A
11:00 PM52 °FPassing clouds.1 mph54%30.01 "HgN/A
Weather by CustomWeather, © 2015

See weather overviewHow to use our weather pages